Orbital Elements
Epoch 2020 Feb. 1.0 TT = JDT 2458880.5
T 2020 Feb. 12.96123 TT Rudenko
q 2.0126035 (2000.0) P Q
z +0.0001005 Peri. 265.70586 +0.02610756 +0.28887374
+/-0.0000015 Node 73.37491 +0.31732225 +0.90543066
e 0.9997978 Incl. 87.14873 -0.94795833 +0.31104224
From 300 observations 2019 May 14-2020 Nov. 10, mean residual 0".9.
|